GW1815 Weather Reports


time (UTC)temp
F
wind
direction
speed
knots
gust
knots
rain 1hr
in
rain 24hr
in
rain mn
in
humidity
%
barometer
mb
20260504033030 49 162 2.6 6.1 0.00 0.00 0.00 78 1004.7
20260504031530 50 200 0.0 3.5 0.00 0.00 0.00 76 1004.8
20260504030030 50 0 0.0 4.3 0.00 0.00 0.00 74 1004.8
20260504024532 51 0 0.0 0.0 0.00 0.00 0.00 73 1004.9
20260504023029 52 0 0.0 0.0 0.00 0.00 0.00 72 1004.7
20260504021534 53 0 0.0 0.0 0.00 0.00 0.00 70 1004.8
20260504020037 54 0 0.0 0.0 0.00 0.00 0.00 67 1004.7
20260504014537 56 0 0.0 0.0 0.00 0.00 0.00 64 1004.6
20260504013031 58 0 0.0 0.0 0.00 0.00 0.00 59 1004.6
20260504011532 60 0 0.0 0.0 0.00 0.00 0.00 55 1004.4
20260504010029 62 0 0.0 1.7 0.00 0.00 0.00 52 1004.3
20260504004534 64 0 0.0 2.6 0.00 0.00 0.00 49 1004.2
20260504003030 65 209 0.9 5.2 0.00 0.00 0.00 48 1004.2
20260504001529 66 0 0.0 6.1 0.00 0.00 0.00 46 1004.2
20260504000032 67 213 1.7 9.6 0.00 0.00 0.00 45 1004.2
20260503234530 68 189 3.5 9.6 0.00 0.00 0.00 42 1004.3
20260503233029 69 227 4.3 13.0 0.00 0.00 0.00 41 1004.3
20260503231529 69 183 5.2 14.8 0.00 0.00 0.00 43 1004.3
20260503230030 69 186 7.8 15.6 0.00 0.00 0.00 41 1004.4
20260503224530 69 219 4.3 16.5 0.00 0.00 0.00 42 1004.5
20260503223030 68 178 7.8 20.0 0.00 0.00 0.00 42 1004.7
20260503221535 68 208 8.7 23.5 0.00 0.00 0.00 43 1004.7
20260503220035 68 121 3.5 18.2 0.00 0.00 0.00 45 1004.8
20260503214540 67 225 9.6 24.3 0.00 0.00 0.00 42 1004.8
20260503213032 68 225 7.8 26.1 0.00 0.00 0.00 42 1005.1
20260503211548 68 208 7.0 23.5 0.00 0.00 0.00 44 1005.3
20260503210035 67 281 7.8 23.5 0.00 0.00 0.00 43 1005.5
20260503204537 67 182 7.0 25.2 0.00 0.00 0.00 44 1005.7
20260503203043 66 198 10.4 24.3 0.00 0.00 0.00 46 1006.2
20260503201535 66 190 13.0 33.9 0.00 0.00 0.00 46 1006.5
20260503200046 66 187 9.6 28.7 0.00 0.00 0.00 46 1006.9
20260503194530 66 203 11.3 25.2 0.00 0.00 0.00 46 1007.1
20260503193034 64 194 8.7 23.5 0.00 0.00 0.00 46 1007.2
20260503191537 62 221 10.4 21.7 0.00 0.00 0.00 50 1007.3
20260503190030 61 182 7.0 20.0 0.00 0.00 0.00 52 1007.4
20260503184541 61 188 12.2 24.3 0.00 0.00 0.00 51 1007.5
20260503183032 62 192 9.6 28.7 0.00 0.00 0.00 51 1007.7
20260503181538 61 194 11.3 26.1 0.00 0.00 0.00 51 1008.0
20260503180047 61 159 9.6 25.2 0.00 0.00 0.00 57 1008.6
20260503174543 59 167 10.4 26.1 0.00 0.00 0.00 58 1009.0
20260503173041 55 173 11.3 25.2 0.00 0.00 0.00 62 1009.3
20260503171534 55 166 11.3 23.5 0.00 0.00 0.00 62 1009.9
20260503081539 43 0 0.9 7.8 0.00 0.00 0.00 65 1012.7
20260503071536 40 0 0.9 4.3 0.00 0.00 0.00 70 1013.1
20260503054531 37 192 1.7 6.1 0.00 0.00 0.00 79 1013.8
20260503053032 37 0 0.9 6.1 0.00 0.00 0.00 80 1013.9
20260503051537 37 198 0.0 3.5 0.00 0.00 0.00 81 1014.0
20260503050033 37 0 0.0 2.6 0.00 0.00 0.00 81 1014.2
20260503044533 37 194 0.0 4.3 0.00 0.00 0.00 81 1014.1
20260503043032 37 152 0.0 1.7 0.00 0.00 0.00 82 1014.2
20260503041534 37 207 0.9 4.3 0.00 0.00 0.00 83 1014.2
20260503040030 37 167 0.9 4.3 0.00 0.00 0.00 84 1014.4
20260503034533 37 200 0.9 4.3 0.00 0.00 0.00 85 1014.5